TimeMST,TemperatureF,Dew PointF,Humidity,Sea Level PressureIn,VisibilityMPH,Wind Direction,Wind SpeedMPH,Gust SpeedMPH,PrecipitationIn,Events,Conditions,WindDirDegrees,DateUTC
12:58 AM,63.0,45.1,52,30.05,10.0,North,6.9,-,N/A,,Clear,10,2013-03-14 07:58:00
1:58 AM,62.1,44.4,52,30.03,10.0,NNE,2.3,-,N/A,,Clear,30,2013-03-14 08:58:00
2:58 AM,57.2,45.5,65,30.01,10.0,NNW,5.8,-,N/A,,Clear,340,2013-03-14 09:58:00
3:58 AM,57.6,44.1,61,30.01,10.0,North,5.8,-,N/A,,Clear,350,2013-03-14 10:58:00
4:58 AM,56.3,42.8,61,30.03,10.0,NE,2.3,-,N/A,,Clear,40,2013-03-14 11:58:00
5:58 AM,54.9,42.3,63,30.05,10.0,NNW,6.9,-,N/A,,Clear,340,2013-03-14 12:58:00
6:58 AM,55.8,40.1,56,30.06,10.0,North,5.8,-,N/A,,Clear,350,2013-03-14 13:58:00
7:58 AM,59.4,42.1,53,30.08,10.0,North,3.5,-,N/A,,Clear,350,2013-03-14 14:58:00
8:58 AM,68.0,42.3,39,30.09,10.0,ENE,2.3,-,N/A,,Clear,60,2013-03-14 15:58:00
9:58 AM,74.8,37.2,26,30.09,10.0,NE,2.3,-,N/A,,Clear,50,2013-03-14 16:58:00
11:58 AM,84.9,32.7,15,30.06,10.0,East,5.8,-,N/A,,Clear,90,2013-03-14 18:58:00
12:58 PM,87.8,33.4,14,30.04,10.0,SE,6.9,-,N/A,,Clear,130,2013-03-14 19:58:00
1:58 PM,90.7,32.2,12,29.99,10.0,ESE,8.1,-,N/A,,Clear,110,2013-03-14 20:58:00
2:58 PM,91.4,25.7,9,29.97,10.0,East,4.6,-,N/A,,Clear,80,2013-03-14 21:58:00
3:58 PM,92.3,23.5,8,29.95,10.0,East,10.4,-,N/A,,Clear,80,2013-03-14 22:58:00
4:58 PM,91.8,25.9,9,29.95,10.0,East,4.6,-,N/A,,Clear,90,2013-03-14 23:58:00
5:58 PM,90.9,27.1,10,29.94,10.0,Calm,Calm,-,N/A,,Clear,0,2013-03-15 00:58:00
6:58 PM,83.8,36.3,18,29.94,10.0,WSW,5.8,-,N/A,,Clear,250,2013-03-15 01:58:00
7:58 PM,75.2,44.6,34,29.94,10.0,NW,9.2,-,N/A,,Clear,310,2013-03-15 02:58:00
8:58 PM,69.3,44.1,40,29.95,10.0,NNW,6.9,-,N/A,,Clear,340,2013-03-15 03:58:00
9:58 PM,67.3,44.2,43,29.96,10.0,North,5.8,-,N/A,,Clear,360,2013-03-15 04:58:00
10:58 PM,68.5,43.3,40,29.96,10.0,North,8.1,-,N/A,,Clear,350,2013-03-15 05:58:00
11:58 PM,66.2,42.3,42,29.95,10.0,North,8.1,-,N/A,,Clear,360,2013-03-15 06:58:00